Home   Weather   Outer Banks   Past weeks
Flag for USA

Past Weather in Outer Banks, North Carolina, USA — Yesterday and Last 2 Weeks

Currently: 66 °F. Passing clouds. (Weather station: Manteo / Dare County Regional, USA). See more current weather

Past Weather in Outer Banks — Graph

°F

Outer Banks Temperature Yesterday

Maximum temperature yesterday: 77 °F (at 12:15 am)
Minimum temperature yesterday: 67 °F (at 4:55 am)
Average temperature yesterday: 73 °F

High & Low Weather Summary for the Past Weeks

 TemperatureHumidityPressure
High92 °F (Jun 17, 4:15 pm)98% (Jun 26, 5:55 am)30.26 "Hg (Jun 26, 5:55 am)
Low59 °F (Jun 21, 4:55 am)34% (Jun 21, 2:15 pm)29.74 "Hg (Jun 18, 4:35 am)
Average74 °F68%30.04 "Hg
* Reported Jun 14 4:35 am — Jun 29 4:35 am, Outer Banks. Weather by CustomWeather, © 2022

Note: Actual official high and low records may vary slightly from our data, if they occured in-between our weather recording intervals... More about our weather records

Outer Banks Weather History for the Previous 24 Hours

Scroll right to see more
 ConditionsComfort  
Time TempWeatherWind HumidityBarometerVisibility
4:35 am
Wed, Jun 29
66 °FPassing clouds.No wind81%30.26 "Hg10 mi
3:35 am68 °FClear.3 mph75%30.25 "Hg10 mi
3:15 am69 °FClear.3 mph74%30.25 "Hg10 mi
2:35 am70 °FClear.5 mph71%30.25 "Hg10 mi
1:55 am69 °FClear.7 mph76%30.24 "Hg10 mi
12:55 am69 °FClear.7 mph77%30.25 "Hg10 mi
12:35 am69 °FClear.5 mph75%30.25 "Hg10 mi
12:15 am70 °FClear.7 mph74%30.25 "Hg10 mi
11:55 pm
Tue, Jun 28
70 °FClear.5 mph76%30.26 "Hg10 mi
11:35 pm70 °FClear.3 mph76%30.26 "Hg10 mi
11:15 pm69 °FClear.3 mph79%30.26 "Hg10 mi
10:55 pm70 °FClear.5 mph79%30.25 "Hg10 mi
10:35 pm70 °FClear.6 mph77%30.24 "Hg10 mi
10:15 pm70 °FClear.8 mph78%30.24 "Hg10 mi
9:55 pm71 °FClear.8 mph75%30.24 "Hg10 mi
9:35 pm71 °FClear.8 mph74%30.23 "Hg10 mi
9:15 pm71 °FClear.8 mph75%30.22 "Hg10 mi
8:55 pm71 °FClear.9 mph75%30.22 "Hg10 mi
7:35 pm72 °FSunny.8 mph73%30.21 "Hg10 mi
6:55 pm72 °FSunny.9 mph73%30.20 "Hg10 mi
6:15 pm73 °FSunny.10 mph71%30.19 "Hg10 mi
5:55 pm74 °FSunny.9 mph71%30.20 "Hg10 mi
5:15 pm75 °FSunny.9 mph67%30.19 "Hg10 mi
4:15 pm76 °FSunny.9 mph66%30.20 "Hg10 mi
3:35 pm76 °FSunny.12 mph65%30.20 "Hg10 mi
3:15 pm76 °FSunny.10 mph65%30.20 "Hg10 mi
2:35 pm76 °FSunny.12 mph60%30.20 "Hg10 mi
1:55 pm76 °FSunny.13 mph57%30.21 "Hg10 mi
1:15 pm77 °FSunny.13 mph53%30.20 "Hg10 mi
12:35 pm76 °FSunny.16 mph56%30.20 "Hg10 mi
12:15 pm76 °FSunny.17 mph52%30.19 "Hg10 mi
11:55 am77 °FSunny.15 mph50%30.19 "Hg10 mi
10:55 am76 °FSunny.14 mph53%30.18 "Hg10 mi
10:35 am76 °FSunny.16 mph54%30.17 "Hg10 mi
10:15 am75 °FSunny.15 mph55%30.17 "Hg10 mi
9:55 am75 °FSunny.17 mph59%30.16 "Hg10 mi
9:35 am74 °FSunny.14 mph62%30.16 "Hg10 mi
9:15 am74 °FSunny.17 mph63%30.15 "Hg10 mi
8:55 am74 °FSunny.18 mph64%30.15 "Hg10 mi
7:55 am73 °FSunny.13 mph76%30.13 "Hg10 mi
7:15 am71 °FSunny.9 mph85%30.11 "Hg10 mi
6:55 am70 °FSunny.10 mph88%30.11 "Hg10 mi
6:35 am70 °FSunny.10 mph89%30.10 "Hg10 mi
6:15 am69 °FScattered clouds.9 mph91%30.10 "Hg10 mi
5:15 am68 °FDrizzle. Mostly cloudy.7 mph93%30.08 "Hg10 mi
Weather by CustomWeather, © 2022

See weather overview